Location: Luxembourg
(49.6117°N, 6.1300°E)
Time: 00:53:41
(UTC+02:00)

ISS - Visible Passes

Search period start: 11 October 2024 00:00
Search period end: 21 October 2024 00:00
Orbit: 412 x 423 km, 51.6° (Epoch: 10 October)

Date Brightness Start Highest point End Pass type
(mag) Time Alt. Az. Time Alt. Az. Time Alt. Az.
17 Oct -1.1 07:09:42 10° S 07:12:07 19° SE 07:14:33 10° E visible
18 Oct -0.8 06:22:21 10° SSE 06:23:49 12° SE 06:25:17 10° ESE visible
19 Oct -2.5 07:08:20 10° SW 07:11:27 38° SSE 07:14:35 10° E visible
20 Oct -1.9 06:21:02 16° SSW 06:22:55 26° SE 06:25:45 10° E visible
